[[{"header":{"parameterUnit":"m.s-1","parameterCategory":1,"la1":30.2991,"la2":30.254,"lo1":-89.0895,"lo2":-89.0444,"dy":0.0017,"dx":0.0017,"nx":28,"ny":28,"refTime":"2024-08-12T21:00:00:Z","depth":0,"parameterNumber":2,"parameterNumberName":"U-component_of_WINDS"},"data":[0,0,0,0,0,0,0,0,0,0,0,0,0,0,0,0,0,0,0,0,0,0,0,0,0,0,0,0,0,0,0,0,0,0,0,0,0,0,0,0,0,0,0,0,0,0,0,0,0,0,0,0,0,0,0,0,0,0,2.1046,2.1048,0,2.1217,2.1219,2.1221,2.1283,2.1282,2.1281,2.1281,2.1455,2.146,2.1465,0,0,0,0,0,0,0,0,0,0,0,0,0,2.0771,2.0776,2.1046,2.1048,2.105,2.1217,2.122,2.1222,2.1283,2.1282,2.1281,2.128,2.1453,2.146,2.1466,0,0,0,0,0,0,0,0,0,0,0,0,0,2.0911,2.0777,2.1046,2.1101,2.1108,2.1217,2.122,2.1222,2.1283,2.1282,2.1281,2.128,2.1451,2.1459,2.1467,2.1533,0,0,2.1491,2.1494,0,0,0,0,0,0,0,0,2.0903,2.0921,2.1091,2.1097,2.1105,2.1228,2.1186,2.1327,2.1283,2.1216,2.1281,2.128,2.138,2.1394,2.1428,2.1541,2.1549,2.1491,2.1496,2.1499,2.1502,0,0,0,0,0,0,0,2.0893,2.0914,2.1114,2.1093,2.1102,2.1117,2.1136,2.1213,2.1301,2.1222,2.1227,2.1246,2.1384,2.142,2.1432,2.1551,2.1491,2.1498,2.1503,2.1506,2.1728,2.1729,0,0,0,0,0,0,2.0874,2.0905,2.1108,2.1119,2.1,2.1122,2.1144,2.1189,2.1301,2.1317,2.1247,2.1249,2.1407,2.1423,2.1439,2.1524,2.1499,2.1507,2.1511,2.1727,2.1728,2.173,0,0,0,0,0,0,2.0868,2.0892,2.1102,2.1014,2.1042,2.1128,2.1179,2.1193,2.1229,2.1319,2.1335,2.1268,2.1407,2.1428,2.1509,2.1531,2.151,2.1517,2.1726,2.1727,2.1729,2.1694,0,0,0,0,0,0,2.086,2.0889,2.0916,2.1014,2.1046,2.1169,2.118,2.1197,2.1243,2.1247,2.1343,2.1358,2.1408,2.1497,2.1517,2.1541,2.1523,2.1724,2.1726,2.1729,2.1694,2.1694,2.1695,0,0,0,0,0,2.085,2.0899,2.0917,2.0941,2.1081,2.117,2.1189,2.1245,2.1244,2.1271,2.1329,2.1355,2.1525,2.1505,2.1528,2.1554,2.1723,2.1726,2.1728,2.1693,2.1694,2.1695,0,0,0,0,0,0,2.08,2.0912,2.0934,2.1016,2.1083,2.118,2.1216,2.1244,2.1313,2.1314,2.1381,2.1402,2.1478,2.1525,2.15,2.1625,2.1626,2.1633,2.1591,2.1593,2.1594,2.158,2.153,0,0,0,0,0,2.0798,2.0862,2.0957,2.102,2.1053,2.1129,2.117,2.1208,2.128,2.1309,2.1373,2.1441,2.1511,2.1555,2.1623,2.1701,2.1723,2.1731,2.1731,2.1732,2.1737,2.1781,2.1786,2.1739,2.1739,2.1739,0,0,2.0796,2.0865,2.0901,2.1012,2.1069,2.1133,2.1152,2.1219,2.1267,2.1319,2.14,2.1449,2.153,2.161,2.1649,2.1652,2.1755,2.1735,2.1734,2.174,2.1785,2.1789,2.1793,2.1741,2.174,2.174,0,0,2.0824,2.0883,2.0942,2.0999,2.1085,2.1135,2.1149,2.1243,2.1277,2.136,2.14,2.1458,2.1576,2.1632,2.1676,2.1726,2.1752,2.1747,2.175,2.1792,2.1796,2.18,2.1817,2.1822,2.1752,2.1752,2.1752,0,2.0809,2.0908,2.0969,2.1034,2.1081,2.1131,2.1191,2.1243,2.1347,2.1378,2.138,2.1529,2.1587,2.1681,2.1693,2.1728,2.1745,2.1735,2.1791,2.1795,2.1799,2.1816,2.1823,2.175,2.1751,2.1751,2.1751,0,2.0886,2.0954,2.0991,2.109,2.1142,2.1204,2.1274,2.1319,2.1352,2.1402,2.1485,2.1557,2.1641,2.1667,2.17,2.1765,2.1764,2.1778,2.178,2.1801,2.1818,2.1826,2.1748,2.1749,2.1749,2.175,0,0,2.0886,2.1019,2.1031,2.1077,2.1176,2.1229,2.1294,2.1376,2.1413,2.1483,2.1538,2.1637,2.165,2.17,2.1741,2.1778,2.1813,2.1787,2.179,2.1789,2.1889,2.1877,2.1884,2.1831,2.1833,2.1834,2.1881,0,2.0926,2.1044,2.11,2.1193,2.1256,2.1305,2.1362,2.1428,2.1477,2.1537,2.1591,2.166,2.1672,2.1702,2.1742,2.18,2.1833,2.1797,2.1883,2.1885,2.186,2.1893,2.1881,2.1922,2.1889,2.189,2.1891,0,2.0989,2.1059,2.1158,2.1249,2.1278,2.1327,2.1408,2.1465,2.1542,2.1574,2.163,2.167,2.1739,2.1737,2.1834,2.1808,2.1847,2.188,2.1883,2.1893,2.1888,2.1902,2.1937,2.1942,2.1902,2.1901,2.19,0,2.0977,2.1097,2.1171,2.1209,2.1318,2.1352,2.1398,2.1474,2.152,2.1591,2.1621,2.1698,2.174,2.1799,2.1858,2.1851,2.1949,2.1952,2.1978,2.1976,2.1995,2.1993,2.2035,2.2021,2.2021,2.2021,2.2021,0,2.1016,2.1074,2.1168,2.1214,2.1281,2.1345,2.141,2.146,2.1527,2.1584,2.1631,2.1683,2.1758,2.1819,2.1866,2.1939,2.1958,2.1986,2.1997,2.1981,2.1977,2.2006,2.2004,2.2023,2.2022,2.2022,2.2022,0,2.1014,2.1079,2.1164,2.126,2.1286,2.1331,2.1414,2.146,2.1511,2.1582,2.1602,2.1682,2.1757,2.1822,2.192,2.1952,2.2026,2.2041,2.2,2.2006,2.2028,2.2024,2.2089,2.2101,2.208,2.208,2.208,0,2.1034,2.108,2.1181,2.1223,2.1269,2.1335,2.1382,2.1448,2.1495,2.1586,2.1621,2.17,2.1765,2.1882,2.1949,2.2025,2.2041,2.2059,2.2053,2.2035,2.204,2.2037,2.2041,2.2058,2.2058,2.2058,2.2058,0,2.1061,2.1091,2.1158,2.1236,2.1292,2.1356,2.1422,2.1453,2.1531,2.1582,2.1659,2.171,2.1811,2.1888,2.1971,2.2019,2.2051,2.206,2.2069,2.2053,2.2027,2.204,2.1999,2.2057,2.2057,2.2058,2.2058,2.2058,2.107,2.1114,2.1192,2.1265,2.1321,2.1382,2.143,2.1488,2.1553,2.164,2.1676,2.1754,2.183,2.1945,2.1993,2.2055,2.2061,2.2075,2.2078,2.2081,2.2077,2.2018,2.2071,2.2071,2.2071,2.2071,2.2071,0,2.11,2.1153,2.1219,2.131,2.1367,2.1394,2.1468,2.1514,2.1582,2.1651,2.1715,2.1803,2.1878,2.1951,2.203,2.2066,2.2082,2.2084,2.2082,2.2092,2.2069,2.2052,2.2069,2.2069,2.2069,2.2069,2.2069,2.2069,2.1122,2.1196,2.1236,2.1339,2.1392,2.1469,2.1509,2.1565,2.162,2.1717,2.1779,2.1827,2.1897,2.1981,2.2051,2.2071,2.2097,2.2095,2.2118,2.2094,2.2094,2.2093,2.2078,2.21,2.21,2.2137,2.2137,2.2137]},{"header":{"parameterUnit":"m.s-1","parameterCategory":1,"la1":30.2991,"la2":30.254,"lo1":-89.0895,"lo2":-89.0444,"dy":0.0017,"dx":0.0017,"nx":28,"ny":28,"refTime":"2024-08-12T21:00:00:Z","depth":0,"parameterNumber":3,"parameterNumberName":"V-component_of_WINDS"},"data":[0,0,0,0,0,0,0,0,0,0,0,0,0,0,0,0,0,0,0,0,0,0,0,0,0,0,0,0,0,0,0,0,0,0,0,0,0,0,0,0,0,0,0,0,0,0,0,0,0,0,0,0,0,0,0,0,0,0,3.5792,3.5793,0,3.5889,3.589,3.5891,3.5887,3.5885,3.5884,3.5883,3.5973,3.5976,3.598,0,0,0,0,0,0,0,0,0,0,0,0,0,3.5593,3.5596,3.5792,3.5793,3.5794,3.5889,3.589,3.5891,3.5887,3.5885,3.5884,3.5882,3.5971,3.5976,3.598,0,0,0,0,0,0,0,0,0,0,0,0,0,3.5683,3.5597,3.5792,3.5804,3.5806,3.5889,3.589,3.5892,3.5887,3.5885,3.5883,3.5881,3.597,3.5975,3.5981,3.6055,0,0,3.5997,3.6,0,0,0,0,0,0,0,0,3.5678,3.569,3.5801,3.5803,3.5805,3.5874,3.5853,3.5946,3.5888,3.5856,3.5883,3.588,3.5941,3.5948,3.5971,3.6059,3.6063,3.5998,3.6001,3.6004,3.6005,0,0,0,0,0,0,0,3.5672,3.5686,3.583,3.5802,3.5805,3.5801,3.5812,3.587,3.5908,3.5859,3.5859,3.5871,3.5942,3.5966,3.5973,3.6064,3.5998,3.6003,3.6006,3.6008,3.6217,3.6219,0,0,0,0,0,0,3.5664,3.5681,3.5827,3.5833,3.5736,3.5806,3.5818,3.5854,3.5908,3.5914,3.5872,3.587,3.5957,3.5967,3.5976,3.6066,3.6004,3.6009,3.6012,3.6215,3.6217,3.622,0,0,0,0,0,0,3.566,3.5677,3.5823,3.5757,3.5775,3.5812,3.5852,3.5857,3.5881,3.5918,3.5924,3.5891,3.5956,3.5968,3.6036,3.6069,3.6011,3.6016,3.6212,3.6216,3.6219,3.6248,0,0,0,0,0,0,3.5654,3.5676,3.5707,3.5758,3.5779,3.5884,3.5854,3.586,3.5891,3.589,3.5937,3.5942,3.5955,3.6028,3.6041,3.6076,3.602,3.6209,3.6214,3.6218,3.6244,3.6252,3.6258,0,0,0,0,0,3.5647,3.5709,3.5708,3.5726,3.5819,3.5886,3.5898,3.5914,3.5894,3.5924,3.5948,3.5941,3.6063,3.6035,3.605,3.6087,3.6207,3.6212,3.6217,3.6241,3.625,3.6258,0,0,0,0,0,0,3.5658,3.5716,3.5716,3.5797,3.5837,3.5885,3.5924,3.5924,3.5968,3.5964,3.5979,3.5989,3.6057,3.6078,3.6045,3.6161,3.6132,3.6141,3.6145,3.6154,3.6161,3.6154,3.6025,0,0,0,0,0,3.567,3.5723,3.577,3.5836,3.5857,3.5887,3.5917,3.5926,3.5967,3.5983,3.6011,3.6049,3.6095,3.6126,3.6171,3.6247,3.6256,3.6279,3.6286,3.6292,3.6299,3.634,3.635,3.6237,3.6237,3.6236,0,0,3.5695,3.5733,3.5765,3.584,3.5872,3.5923,3.5901,3.5957,3.5994,3.599,3.6057,3.6079,3.6121,3.6193,3.6226,3.6212,3.6332,3.6298,3.6303,3.6307,3.6346,3.6357,3.6366,3.624,3.6239,3.6239,0,0,3.5767,3.5802,3.5862,3.5895,3.5945,3.5965,3.5979,3.6027,3.6043,3.6111,3.6108,3.6151,3.6232,3.6262,3.6288,3.6371,3.6366,3.6385,3.6422,3.6462,3.6471,3.6479,3.6508,3.6518,3.6391,3.6391,3.6391,0,3.5791,3.5872,3.5891,3.5948,3.598,3.5982,3.604,3.607,3.6131,3.6151,3.6136,3.6238,3.6266,3.6345,3.6365,3.6386,3.6401,3.638,3.6468,3.6477,3.6484,3.6512,3.6523,3.6393,3.6393,3.6393,3.6393,0,3.5898,3.5954,3.5996,3.6059,3.6095,3.6152,3.6177,3.621,3.6216,3.6236,3.6303,3.6338,3.639,3.6409,3.6414,3.6488,3.6478,3.6466,3.6437,3.6497,3.6523,3.6534,3.6396,3.6396,3.6395,3.6394,0,0,3.598,3.6054,3.6068,3.6097,3.6152,3.6194,3.6249,3.6304,3.6332,3.6373,3.6419,3.6487,3.6476,3.6505,3.6513,3.6547,3.661,3.653,3.6531,3.6544,3.6693,3.6703,3.6715,3.6607,3.6609,3.6611,3.6689,0,3.6058,3.6162,3.6181,3.627,3.6321,3.6322,3.6371,3.6408,3.6428,3.6471,3.6491,3.654,3.6521,3.6539,3.6573,3.6595,3.664,3.659,3.6648,3.665,3.6638,3.6729,3.6739,3.6812,3.67,3.6702,3.6703,0,3.6163,3.6211,3.6306,3.6355,3.6376,3.642,3.6471,3.6513,3.6554,3.6566,3.6599,3.6603,3.6658,3.6627,3.6702,3.6667,3.6691,3.6705,3.6708,3.6715,3.668,3.6737,3.6836,3.6847,3.6719,3.6718,3.6717,0,3.6213,3.6301,3.6369,3.6393,3.6451,3.6482,3.6506,3.6546,3.6577,3.662,3.664,3.6687,3.6713,3.6748,3.6763,3.674,3.6836,3.6807,3.6846,3.6846,3.6867,3.6865,3.697,3.6882,3.6882,3.6882,3.6881,0,3.6298,3.6356,3.6393,3.6435,3.6499,3.6518,3.658,3.6603,3.6638,3.6682,3.6685,3.6726,3.6744,3.6786,3.6798,3.6858,3.6869,3.6878,3.6881,3.6878,3.6877,3.6895,3.689,3.6885,3.6884,3.6883,3.6883,0,3.6366,3.6393,3.6467,3.6517,3.653,3.6575,3.6616,3.6655,3.6675,3.673,3.6744,3.6774,3.6824,3.6843,3.6903,3.6911,3.698,3.6978,3.6967,3.6968,3.7006,3.7002,3.7126,3.7143,3.7043,3.7044,3.7045,0,3.6419,3.6464,3.6519,3.6551,3.6578,3.6628,3.6661,3.668,3.6713,3.6763,3.6795,3.6846,3.6888,3.6968,3.6992,3.7038,3.7037,3.7078,3.7044,3.704,3.7038,3.7035,3.7039,3.7084,3.7085,3.7086,3.7086,0,3.6509,3.6521,3.657,3.6623,3.6663,3.6705,3.6745,3.677,3.6794,3.6831,3.6884,3.6917,3.698,3.7029,3.7076,3.7098,3.7096,3.7097,3.7108,3.7106,3.7099,3.7103,3.6985,3.7094,3.7093,3.7092,3.7092,3.7092,3.6571,3.6611,3.6657,3.6711,3.6744,3.6782,3.6822,3.6847,3.6893,3.6948,3.6955,3.7012,3.705,3.7114,3.7137,3.718,3.7169,3.7185,3.7189,3.7193,3.7196,3.7092,3.7188,3.7188,3.7188,3.7188,3.7187,0,3.6662,3.6692,3.6742,3.68,3.6842,3.6839,3.6883,3.6917,3.6969,3.7006,3.7048,3.7108,3.7156,3.7185,3.7233,3.7261,3.7261,3.7273,3.7271,3.7276,3.7203,3.7189,3.7272,3.7272,3.7272,3.7272,3.7272,3.7272,3.6715,3.6783,3.6799,3.6883,3.6911,3.697,3.6995,3.7029,3.7059,3.7128,3.7169,3.7189,3.7222,3.7272,3.7315,3.7322,3.7339,3.7352,3.7358,3.7289,3.7281,3.7272,3.7259,3.7355,3.7355,3.7426,3.7427,3.7428]}]]